Regional Weather Roundup
Issued by NWS

Home | Current Version | Previous Version | Text Only | Print | Product List | Glossary On
Versions: 1 2 3 4 5 6 7 8 9 10 11 12 13 14 15 16 17 18 19 20 21 22 23 24 25 26 27 28 29 30 31 32 33 34 35 36 37 38 39 40 41 42 43 44 45 46 47 48 49 50
000
ASUS45 KBOU 022207
RWRCO

WEATHER ROUNDUP FOR COLORADO
NATIONAL WEATHER SERVICE DENVER/BOULDER CO
400 PM MDT WED SEP 02 2015

NOTE: "FAIR" INDICATES FEW OR NO CLOUDS BELOW 12000 FEET WITH NO
SIGNIFICANT WEATHER AND/OR OBSTRUCTIONS TO VISIBILITY.

COZ001>005-013-030-031-022300-
...NORTHWEST COLORADO...

CITY           SKY/WX    TMP DP  RH WIND       PRES   REMARKS
CRAIG          PTSUNNY   76  45  33 S9        30.12F
HAYDEN         NOT AVBL
MEEKER         MOSUNNY   78  45  30 W8        30.13F THUNDER
MOUNT WERNER   NOT AVBL
STEAMBOAT SPGS PTSUNNY   74  45  35 W14G20    30.20R
WALDEN         MOSUNNY   70  37  30 S15G24    30.27S
$$

COZ006>008-011-022300-
...WEST CENTRAL VALLEYS...

CITY           SKY/WX    TMP DP  RH WIND       PRES   REMARKS
GRAND JUNCTION MOSUNNY   85  49  28 W7        30.03F
MONTROSE       PTSUNNY   83  46  27 E5        30.10F
EAGLE          MOSUNNY   81  39  22 MISG      30.17F
RIFLE          TSTM      74  53  48 E16G28    30.09F
DELTA          PTSUNNY   87  46  23 S10       30.05F HAZE
NUCLA          PTSUNNY   82  41  23 W16       30.15F
$$

COZ017>023-064>068-022300-
...SOUTHWEST COLORADO...

CITY           SKY/WX    TMP DP  RH WIND       PRES   REMARKS
DURANGO        PTSUNNY   81  43  26 S16       30.19F
CORTEZ         SUNNY     84  44  24 SW16G22   30.14F
PAGOSA SPRINGS PTSUNNY   80  37  21 SW13G18   30.27F
TELLURIDE      CLOUDY    66  42  41 SE16G24   30.38F THUNDER
WOLF CREEK PAS NOT AVBL
$$

COZ009-010-012-014-032>034-037-058>063-022300-
...CENTRAL COLORADO...

CITY           SKY/WX    TMP DP  RH WIND       PRES   REMARKS
ASPEN          MOSUNNY   75  42  30 NW5       30.24F
BUENA VISTA    MOSUNNY   77  33  19 W16       30.25F
COPPER MTN     MOSUNNY   61  30  31 W6G24     30.59S
BERTHOUD PASS  PTSUNNY   54  41  62 W13       30.62F
COTTONWOOD PAS PTSUNNY   70  32  24 SW8G16    30.42S
GUNNISON       PTSUNNY   73  43  33 E7        30.28F
KREMMLING      MOSUNNY   73  36  25 W9G21     30.22F
LEADVILLE      PTSUNNY   66  36  32 VRB3      30.40F
MONARCH PASS   PTSUNNY   54  34  47 SW21G26   30.69S
SALIDA         MOSUNNY   81  36  19 SW13G21   30.29R
SUNLIGHT       CLOUDY    61  45  55 CALM      30.51F
WILKERSON PASS MOSUNNY   64  32  29 SW6       30.54F
$$

COZ069>075-022300-
...SAN LUIS VALLEY/SANGRE DE CRISTO MOUNTAINS...

CITY           SKY/WX    TMP DP  RH WIND       PRES   REMARKS
ALAMOSA        MOSUNNY   79  40  24 VRB6      30.22F
LA VETA PASS   PTSUNNY   70  36  28 S7        30.45F
SAGUACHE       PTSUNNY   70  43  37 NW6       30.30F
$$

COZ035-036-038>040-022300-
...NORTHERN COLORADO FRONT RANGE...

CITY           SKY/WX    TMP DP  RH WIND       PRES   REMARKS
DENVER INTL AP PTSUNNY   90  33  13 W7        30.02F
DMNS CITY PARK   N/A     88  33  14 E2G12     30.01F
AURORA         PTSUNNY   88  34  14 E3        30.05F
FRONT RANGE AP NOT AVBL
ERIE MUNI ARPT MOSUNNY   89  33  14 S9        29.99F
BOULDER MUN AP MOSUNNY   88  39  18 S9        30.00F
CENTENNIAL     PTSUNNY   86  36  16 N6        30.06F
BROOMFIELD     PTSUNNY   88  37  16 SE3       30.04F
FORT COLLINS   MOSUNNY   88  41  19 S6        29.97F
LONGMONT       MOSUNNY   91  37  14 NE10      30.00S
$$

COZ041-046-047-076>085-087-088-022300-
...PIKES PEAK/PALMER DIVIDE AND SOUTHERN FOOTHILLS...

CITY           SKY/WX    TMP DP  RH WIND       PRES   REMARKS
COLO. SPRINGS  MOSUNNY   84  36  18 E7G17     30.10F
A. F. ACADEMY  PTSUNNY   83  36  18 SE9       30.11F
ELLICOTT       MOSUNNY  N/A N/A N/A CALM      30.09F
FALCON         MOSUNNY   84  32  15 MISG      30.17F
FORT CARSON    MOSUNNY   86  40  20 E8        30.06F
LIMON          SUNNY     87  38  17 NE7       30.04F
MONUMENT HILL  MOSUNNY   81  34  18 SE6       30.18F
TRINIDAD       CLOUDY    82  44  26 S12       30.10S
$$

COZ042>045-048>051-090-091-022300-
...NORTHEAST COLORADO...

CITY           SKY/WX    TMP DP  RH WIND       PRES   REMARKS
GREELEY ARPT   MOSUNNY   91  37  15 W6        29.97F
AKRON          SUNNY     91  38  15 SW5       29.97F
BURLINGTON     MOSUNNY   93  46  19 SW3       29.94F
WRAY           CLOUDY    99  41  13 S13       29.89F
STERLING       SUNNY     93  45  18 SE7       29.91
HOLYOKE        SUNNY     97  50  20 CALM      29.91F
FORT MORGAN    SUNNY     92  37  14 SE9       29.97F
$$

COZ086-089-092>099-022300-
...SOUTHEAST COLORADO...

CITY           SKY/WX    TMP DP  RH WIND       PRES   REMARKS
PUEBLO         MOSUNNY   93  40  15 SE14      29.97F
LA JUNTA       MOSUNNY   96  39  13 VRB3      29.94F
LAMAR          MOSUNNY   97  45  16 W10       29.89F
SPRINGFIELD      N/A     92  49  22 S10       29.96F
$$



USA.gov is the U.S. government's official web portal to all federal, state and local government web resources and services.